GFSNIL_sfc_30mbdewp_000.txt.gz
Dewpoint
38 37 36 36 34 34 34 35 34 37 37 36 37 37 38 38 38 38 39 37 36 36
37 37 35 33 34 33 35 34 36 37 36 36 36 37 37 37 36 36 37 37 37 35
35 36 34 34 33 35 35 34 35 36 37 37 37 36 36 36 36 35 35 36 36 36
35 34 34 34 35 35 35 34 34 34 34 34 34 37 37 36 35 32 31 32 32 32
34 32 32 34 32 31 32 33 31 31 31 32 32 34 36 35 35 33 32 30 29 29
32 30 30 29 29 30 30 30 27 24 22 20 21 21 21 22 24 23 22 21 22 23
31 28 27 27 26 26 25 23 20 19 20 21 20 20 23 22 23 22 20 21 20 21
30 27 27 27 25 24 22 19 18 18 20 21 20 22 23 22 21 20 19 19 19 19
30 28 28 27 25 22 20 18 18 20 20 20 19 23 23 23 21 20 19 18 18 18
35 33 32 27 24 19 18 19 20 21 21 21 22 23 23 22 20 18 17 17 18 19
33 32 29 27 25 21 18 19 20 21 21 21 22 24 23 22 20 18 18 18 18 18
33 27 27 26 25 20 18 19 21 22 25 24 23 24 27 26 22 21 19 19 21 22
25 26 27 27 24 18 19 20 25 25 26 25 24 25 25 24 22 20 20 21 21 19
30 26 24 23 17 19 19 20 25 25 25 25 24 24 24 24 22 22 21 20 20 21

GFSNIL_sfc_30mbdewp_003.txt.gz
Dewpoint
37 36 34 32 30 31 33 35 36 37 36 37 36 36 36 36 36 37 36 36 36 36
36 37 36 33 32 35 36 35 37 37 36 35 35 36 35 35 35 36 36 36 37 37
37 37 39 36 35 34 34 34 34 33 34 33 33 34 36 35 34 34 34 34 34 35
35 35 36 34 32 32 32 33 32 31 30 30 31 32 34 34 34 34 33 33 33 32
35 33 34 32 30 30 29 30 31 29 25 24 23 24 27 31 32 29 24 23 22 23
36 32 29 28 28 27 27 26 23 22 21 21 22 22 23 23 23 23 22 21 21 20
39 36 28 29 28 25 24 21 19 18 18 20 22 23 22 21 20 20 20 21 21 20
36 33 34 32 29 29 24 21 17 17 19 21 22 22 21 21 20 19 19 19 19 18
37 36 35 34 33 29 21 16 17 19 20 22 21 24 23 21 19 18 18 17 17 19
35 35 36 37 34 22 19 17 17 20 22 21 21 23 22 22 20 18 18 18 18 18
32 33 36 36 27 21 19 15 19 21 23 23 23 25 25 23 22 21 21 20 20 20
30 31 31 31 26 25 19 18 21 24 24 23 24 26 27 27 25 23 22 21 21 20
32 31 32 32 27 23 17 20 24 23 24 25 25 27 25 26 25 21 21 21 20 20
31 31 30 29 20 16 19 24 23 22 21 23 23 22 24 21 20 19 21 19 19 21

GFSNIL_sfc_30mbdewp_006.txt.gz
Dewpoint
36 36 36 36 34 35 37 37 37 36 35 34 34 35 35 34 34 34 33 33 34 35
38 38 38 39 37 36 36 36 35 35 33 33 33 33 34 33 33 33 32 32 33 33
38 38 39 37 35 33 33 34 32 31 30 30 30 32 33 32 32 33 33 33 33 32
36 36 36 35 33 32 33 33 31 30 28 25 25 26 27 28 31 33 28 26 24 22
37 35 34 33 32 32 31 30 28 27 25 22 22 23 23 26 26 23 21 21 21 20
34 38 34 32 31 28 28 28 28 23 20 19 21 22 24 24 22 21 21 21 20 19
28 35 34 30 31 33 35 36 29 19 18 20 22 24 22 20 20 20 19 20 20 19
36 35 34 33 34 35 36 36 24 18 18 22 23 22 21 21 20 19 19 19 18 17
35 36 35 35 35 35 36 23 18 19 21 22 22 25 24 21 20 19 19 18 18 19
33 35 35 36 36 36 29 26 20 20 22 21 22 25 25 24 21 21 19 20 20 20
30 31 32 34 33 33 27 23 19 23 23 23 23 25 27 26 25 23 23 22 21 20
31 31 31 31 31 32 29 19 23 24 23 24 26 27 26 25 24 22 20 21 20 19
31 31 31 31 31 30 19 23 23 23 24 24 21 24 22 20 21 18 19 20 18 19
29 28 28 28 23 19 23 23 21 19 22 21 20 21 19 17 17 18 19 17 18 19

GFSNIL_sfc_30mbdewp_009.txt.gz
Dewpoint
34 35 36 37 37 37 37 37 37 36 34 33 33 34 34 32 32 32 30 29 31 32
38 38 38 39 39 37 37 37 36 35 34 35 33 32 33 30 29 31 31 31 32 32
38 38 38 38 37 36 34 35 34 35 35 31 28 29 30 29 29 31 31 32 31 26
33 33 36 36 35 33 33 34 34 33 29 27 25 25 24 24 26 29 29 25 23 21
31 32 35 35 34 33 32 31 33 34 33 28 23 22 22 23 28 24 21 20 20 19
31 32 33 35 31 29 30 31 33 35 31 24 21 22 23 25 23 21 20 20 19 19
32 33 31 30 30 30 32 35 35 35 29 22 21 23 24 22 20 21 20 20 20 19
33 35 34 34 34 34 35 35 36 28 21 22 23 23 21 20 21 21 20 20 20 19
30 32 34 35 36 36 36 36 23 29 25 23 22 24 23 23 22 21 20 20 20 20
31 31 32 33 35 35 33 30 27 21 22 21 22 25 26 27 25 24 23 23 22 20
30 29 31 32 32 32 33 32 25 22 24 23 26 28 28 28 24 22 22 20 19 20
30 30 31 30 30 31 31 27 23 24 24 23 25 25 24 21 21 19 18 19 19 18
29 30 28 28 29 29 19 23 23 22 23 22 19 23 19 18 19 17 18 19 18 18
27 25 25 24 22 20 23 24 20 21 21 20 20 19 17 17 17 17 20 18 18 20

GFSNIL_sfc_30mbdewp_012.txt.gz
Dewpoint
36 36 37 38 38 38 38 37 37 36 34 33 33 32 33 33 30 31 28 27 28 30
38 37 37 38 38 38 37 37 37 35 36 36 35 35 33 32 28 29 29 29 30 31
28 29 32 34 35 36 36 36 35 35 35 35 33 30 31 30 28 28 29 31 31 26
29 30 31 32 35 35 34 34 34 35 32 29 30 30 27 25 25 25 29 26 22 21
29 30 30 31 33 33 33 33 32 32 34 34 31 27 23 22 23 26 23 21 20 20
29 31 30 30 30 31 30 31 33 35 35 33 28 22 23 23 25 22 20 21 21 20
28 31 32 33 32 31 32 34 35 35 34 27 22 23 24 23 21 20 21 22 21 21
29 31 32 33 34 35 35 35 36 32 23 24 23 23 22 20 21 21 21 21 22 21
29 30 30 32 32 33 35 35 34 27 26 22 22 24 25 25 26 24 24 23 22 22
29 30 29 31 31 32 33 32 31 28 22 22 23 26 27 28 26 23 22 21 19 17
29 29 30 30 30 30 31 32 31 23 23 24 27 26 26 25 21 20 19 19 18 18
29 28 29 28 27 28 30 28 23 24 24 24 22 24 21 20 19 19 18 18 19 18
28 27 27 25 25 26 21 21 24 23 22 20 19 20 18 18 17 16 17 20 19 18
27 26 25 25 24 22 21 24 22 21 21 19 19 17 18 17 17 17 19 19 18 19

GFSNIL_sfc_30mbdewp_015.txt.gz
Dewpoint
39 37 34 33 32 32 34 36 40 39 36 35 34 31 32 31 31 30 28 27 28 27
30 29 29 31 32 31 35 37 39 38 35 38 35 34 33 32 31 30 29 29 30 29
29 30 29 29 27 29 33 37 38 37 36 36 35 32 32 30 29 30 27 27 28 28
28 29 29 28 29 30 34 35 35 36 36 34 32 32 33 30 28 26 25 27 28 25
28 29 29 29 30 32 32 33 34 34 33 34 35 34 30 25 23 24 24 24 23 21
27 29 30 30 31 33 33 33 33 32 34 35 34 31 25 25 25 25 23 22 23 22
28 30 31 31 31 32 33 34 35 36 36 33 26 24 24 24 23 22 22 23 23 23
28 31 31 31 31 32 33 34 36 35 31 29 25 22 23 22 22 23 23 23 21 20
27 30 31 31 31 31 32 32 34 30 30 29 22 26 28 27 25 23 20 16 16 15
27 29 30 30 29 28 29 30 32 33 27 24 26 28 28 26 20 17 16 15 14 14
26 28 29 29 27 27 28 31 32 28 24 25 24 26 23 22 19 16 15 14 15 15
26 29 28 27 26 26 27 25 24 24 25 24 21 22 20 19 18 17 16 16 16 16
28 28 28 27 26 26 26 22 24 24 23 20 20 19 19 18 19 18 17 16 15 16
28 27 28 27 26 25 23 24 25 24 22 20 20 18 18 19 20 18 16 14 12 15

GFSNIL_sfc_30mbdewp_018.txt.gz
Dewpoint
24 22 20 22 23 22 22 23 27 31 34 37 36 35 34 34 30 27 25 23 22 21
25 25 25 26 25 23 23 24 27 34 36 37 38 36 36 31 29 27 25 23 23 21
25 25 26 25 24 23 24 25 27 31 34 35 36 36 33 29 31 26 23 21 21 21
25 25 25 25 24 24 26 25 26 28 31 32 34 33 31 32 33 26 21 21 21 22
24 24 25 25 24 25 26 27 28 29 29 29 30 30 32 32 27 20 20 20 21 20
23 24 25 25 25 25 26 27 29 29 29 29 32 34 32 25 23 22 22 23 23 22
24 25 26 26 26 26 27 28 28 29 30 31 28 25 24 23 23 23 23 24 24 23
24 26 26 27 26 27 27 27 28 28 29 30 30 29 29 26 24 24 22 22 19 15
24 25 26 26 27 26 25 26 27 26 29 31 28 26 28 24 22 21 19 16 14 14
24 25 24 24 25 25 25 26 26 27 30 29 27 28 26 22 19 20 16 14 14 13
21 22 22 24 25 25 25 25 25 25 26 25 26 26 22 20 20 18 15 15 15 14
23 22 22 23 25 26 25 25 23 24 25 26 25 22 20 19 20 19 18 17 15 14
21 22 23 24 24 26 26 23 22 23 26 23 23 20 19 18 20 21 19 17 14 12
23 24 24 26 27 26 25 22 25 26 26 24 22 22 19 19 21 21 18 16 15 12

GFSNIL_sfc_30mbdewp_021.txt.gz
Dewpoint
27 27 24 24 25 23 22 22 24 26 30 32 32 33 37 35 37 34 31 28 26 26
28 27 27 27 26 23 23 22 22 26 27 30 31 34 38 37 37 31 29 31 28 27
28 27 27 27 26 24 24 25 25 25 25 27 29 35 34 33 31 31 32 32 26 23
26 27 27 27 26 24 25 25 24 25 26 27 26 27 28 29 32 31 31 30 24 25
26 25 25 26 26 25 25 25 24 25 26 25 25 26 29 30 32 31 27 24 25 24
25 25 25 26 25 25 24 25 24 25 25 25 28 31 27 24 24 24 25 26 23 23
23 25 26 26 25 26 25 25 25 25 25 25 26 26 27 27 26 26 25 26 25 23
23 26 26 25 25 25 26 25 24 24 24 25 29 29 29 27 27 25 25 23 21 17
23 25 25 23 25 24 24 24 24 24 24 25 30 27 26 23 22 22 22 20 16 15
23 24 22 21 20 21 23 25 24 24 25 27 28 28 25 21 20 21 19 17 15 15
22 17 18 19 20 21 23 24 24 23 25 25 27 26 22 21 21 21 19 17 17 16
17 19 19 19 20 22 24 25 24 23 23 23 27 24 22 19 21 21 20 19 17 16
18 18 18 20 22 23 25 24 23 21 22 24 27 24 21 19 22 21 20 19 17 15
19 20 22 23 24 25 25 25 25 25 26 26 26 25 21 20 21 22 21 19 17 17

GFSNIL_sfc_30mbdewp_024.txt.gz
Dewpoint
32 32 32 31 27 27 26 27 27 30 31 32 34 35 37 38 37 38 38 35 35 31
32 31 31 30 29 28 27 25 28 29 30 30 31 34 33 39 39 39 37 35 34 33
32 32 31 30 29 27 27 28 29 29 29 30 30 30 33 35 34 34 35 35 35 35
34 31 30 30 29 27 27 28 27 28 28 28 29 29 31 32 32 32 33 34 34 35
32 30 31 29 28 28 27 28 27 27 27 28 28 29 31 32 30 30 30 28 29 28
30 29 28 28 29 28 28 27 28 27 28 28 28 30 30 30 28 28 28 29 28 27
28 29 28 29 29 28 29 28 28 28 28 28 27 27 29 28 28 29 28 28 27 25
26 26 28 29 29 28 29 28 28 27 27 27 28 29 30 28 27 28 26 26 24 21
25 26 28 29 27 27 27 27 27 27 27 28 29 27 25 22 22 24 23 22 20 18
26 26 27 24 22 22 24 27 27 28 27 26 29 27 23 20 21 23 23 21 19 18
27 22 21 22 23 23 25 26 27 27 27 26 29 27 23 20 19 24 23 21 20 19
20 21 21 22 23 24 25 26 28 27 26 25 27 26 23 19 22 24 23 22 21 20
21 23 25 24 25 26 26 27 27 26 26 25 29 26 23 20 23 23 23 22 20 18
27 26 25 25 26 27 28 27 28 27 27 27 29 26 24 22 21 23 23 22 21 22

GFSNIL_sfc_30mbdewp_027.txt.gz
Dewpoint
32 31 32 30 29 28 27 27 29 29 29 30 31 31 36 37 37 37 37 37 36 35
32 32 32 30 29 28 28 26 28 29 29 30 30 30 31 33 38 38 38 37 36 34
32 33 32 31 29 27 28 27 28 28 29 29 29 30 31 33 33 33 34 35 35 36
32 34 32 31 30 28 28 27 28 27 27 27 28 30 31 32 31 31 32 32 34 34
33 34 31 32 30 29 27 28 27 28 27 28 29 30 31 31 30 28 28 29 28 28
33 32 31 31 30 29 28 28 28 27 27 28 29 29 31 30 28 28 29 29 28 27
32 31 30 30 30 28 29 29 28 28 28 28 29 31 30 29 29 29 29 28 27 25
31 33 31 30 30 30 29 28 28 28 28 28 31 30 29 26 26 24 24 25 24 20
30 30 30 29 27 27 28 27 29 29 28 29 29 29 26 23 22 23 23 22 20 19
29 28 25 24 23 23 23 27 28 29 29 27 29 28 25 20 21 21 24 22 20 19
27 26 27 25 24 27 29 27 27 28 28 29 29 28 24 20 19 23 24 22 21 20
25 25 27 27 29 30 28 26 27 28 28 28 29 28 24 20 22 24 24 23 22 22
30 30 29 31 30 27 27 28 29 26 26 27 27 28 25 21 21 22 23 23 21 19
31 32 31 28 27 28 28 28 28 29 27 27 27 27 26 24 22 21 23 22 21 20

GFSNIL_sfc_30mbdewp_030.txt.gz
Dewpoint
33 32 31 31 30 29 29 29 29 29 29 30 30 29 31 33 35 37 37 37 36 35
33 33 32 30 30 30 29 29 30 29 28 29 29 29 31 32 34 38 36 35 35 35
33 33 31 31 29 29 29 28 28 28 28 27 27 29 31 32 32 32 33 34 34 35
31 33 33 32 30 29 28 28 28 28 27 27 28 29 31 31 31 30 32 31 32 35
33 34 33 32 30 30 28 29 28 28 27 27 28 28 30 31 31 28 27 29 29 29
32 34 31 32 32 30 29 28 29 27 27 27 28 28 30 32 31 29 29 29 28 27
33 34 31 32 32 31 29 29 29 28 28 29 29 29 30 29 29 29 29 29 27 25
33 33 33 33 31 30 30 29 29 29 30 30 30 31 30 28 27 25 24 24 21 20
33 34 33 31 30 26 25 25 27 27 30 29 30 29 30 27 24 23 23 22 20 19
32 29 28 27 26 27 29 29 28 28 29 29 30 29 29 25 22 22 22 23 20 19
30 29 30 30 32 33 32 29 28 27 28 29 30 30 29 23 21 21 24 23 21 20
31 33 35 35 34 32 31 28 27 29 29 28 29 30 28 22 20 21 23 24 23 22
36 36 35 35 32 30 28 28 29 28 28 28 27 30 28 24 21 21 23 23 22 20
37 36 33 32 30 29 28 27 26 27 28 29 28 27 29 27 22 22 22 23 22 21